Regional Weather Roundup
Issued by NWS Kansas City/Pleasant Hill, MO

Home | Current Version | Previous Version | Text Only | Print | Product List | Glossary On
Versions: 1 2 3 4 5 6 7 8 9 10 11 12 13 14 15 16 17 18 19 20 21 22 23 24 25 26 27 28
000
ASUS43 KEAX 221410
RWREAX

WEATHER ROUNDUP FOR EASTERN KANSAS AND NORTHWEST MISSOURI
NATIONAL WEATHER SERVICE KANSAS CITY/PLEASANT HILL MO
900 AM CDT FRI JUL 22 2016

KSZ040-057-103>105-MOZ028-029-037-043-221500-
...KANSAS CITY METROPOLITAN AREA...

CITY           SKY/WX    TMP DP  RH WIND       PRES   REMARKS
K.C. INTL      MOSUNNY   84  73  69 SW10      30.03R HX  90
K.C. DOWNTOWN  SUNNY     86  55  34 SW6       30.02R
LEES SUMMIT    SUNNY     86  71  60 SW12      30.06R HX  91
OLATHE - IXD   SUNNY     85  71  63 SW13      30.05R HX  90
OLATHE - OJC   SUNNY     84  72  67 SW9G18    30.05R
LAWRENCE       SUNNY     86  73  65 S6        30.02R HX  93

$$

MOZ001>008-011>017-020>025-030>033-038>040-044>046-053-054-221500-
...NORTHERN AND CENTRAL MISSOURI...

CITY           SKY/WX    TMP DP  RH WIND       PRES   REMARKS
ST. JOSEPH     MOSUNNY   84  73  69 S8        30.00R HX  90
MOSBY          PTSUNNY   81  73  78 E8        30.05R
WHITEMAN AFB   PTSUNNY   80  75  85 E14G24    30.11R
CLINTON        MOSUNNY   84  75  74 S3        30.08R HX  92
SEDALIA        CLOUDY    79  70  74 E16G26    30.16R
WARSAW         NOT AVBL
CHILLICOTHE      N/A     77  69  76 SE12G17   30.11S
KIRKSVILLE     RAIN      70  68  93 S16       30.08F

$$

MOZ041-047>049-056>058-063>065-088>090-097-221500-
...EASTERN AND SOUTHERN MISSOURI...

CITY           SKY/WX    TMP DP  RH WIND       PRES   REMARKS
ST. LOUIS INTL LGT RAIN  76  68  76 SW10      30.11F
SPIRIT OF STL  LGT RAIN  75  69  81 CALM      30.11F
COLUMBIA       RAIN      72  69  90 NE13G22   30.20R FOG
JEFFERSON CITY CLOUDY    76  67  73 E10       30.17R
ROLLA          LGT RAIN  75  68  78 NE20G25   30.17R
OSAGE BEACH    CLOUDY    79  74  84 NE20G25   30.16R
SPRINGFIELD    SUNNY     84  74  71 SW8       30.11R HX  91
BRANSON        SUNNY     84  73  70 CALM      30.14R HX  91
JOPLIN         SUNNY     85  72  65 SW9       30.09S HX  91
WEST PLAINS    SUNNY     86  74  67 VRB5      30.14R HX  94

$$

IAZ060-094-KSZ022-034>040-054-083-096-NEZ052-066-093-221500-
...KANSAS...SOUTHEAST NEBRASKA AND IOWA...

CITY           SKY/WX    TMP DP  RH WIND       PRES   REMARKS
TOPEKA         SUNNY     86  70  58 S7        29.99F HX  90
MANHATTAN      SUNNY     88  70  55 SW12      29.97S HX  93
EMPORIA        SUNNY     87  68  52 S17G23    30.03R HX  90
CHANUTE        SUNNY     85  72  65 S8        30.06R HX  91
WICHITA        MOSUNNY   85  68  56 S15       30.03S
OMAHA          MOSUNNY   84  73  69 SE12      29.93S HX  90
LINCOLN        SUNNY     85  71  63 S7        29.94R HX  90
FALLS CITY     SUNNY     85  73  67 SW8       29.96S HX  91
LAMONI         CLOUDY    75  70  84 S14G23    30.05R
DES MOINES     PTSUNNY   79  72  79 S14       29.99F

$$





USA.gov is the U.S. government's official web portal to all federal, state and local government web resources and services.